Flag for Maldives Weather past 2 weeks in Male, Maldives

Now
88 °F

Scattered clouds.


Feels Like: 100 °F
Forecast: 84 / 88 °F
Wind: 15 mph from West

Location: Male Airport

Current Time: Jul 4, 2015 at 3:49:38 PM

Latest Report: Jul 4, 2015 at 3:00 PM


Visibility: N/A

Pressure: 29.89 "Hg

Humidity: 70%

Dew point: 77 °F

Location of MaleLocation

Historic Weather in Male — Graph

°F

Male temperature yesterday

Maximum temperature yesterday: 90 °F (at 1:00 PM)
Minimum temperature yesterday: 82 °F (at 12:00 AM)
Average temperature yesterday: 86 °F

Past Weeks' High & Low Weather Summary

 TemperatureHumidityPressure
High91 °F (Jun 26, 2:00 PM)94% (Jun 21, 8:00 AM)29.98 "Hg (Jun 21, 8:00 AM)
Low79 °F (Jun 21, 8:00 AM)63% (Jun 23, 4:00 PM)29.74 "Hg (Jun 19, 3:00 PM)
Average86 °F76%29.87 "Hg
* Reported Jun 19 2:00 PM — Jul 4 2:00 PM, Male, Weather by CustomWeather, © 2015

Note: Actual official high and low records may vary slightly from our data, if they occured in-between our weather recording intervals... More about our weather records

Advertising

Male weather history for previous 24 hours

 ConditionsComfort  
Time TempWeatherWind HumidityBarometerVisibility
2:00 PM
Sat, Jul 4
84 °FSprinkles. Broken clouds.6 mph74%29.92 "HgN/A
1:00 PM81 °FSprinkles. Scattered clouds.21 mph84%29.95 "HgN/A
12:00 PM88 °FScattered clouds.10 mph75%29.95 "HgN/A
11:00 AM84 °FScattered clouds.13 mph84%29.95 "HgN/A
10:00 AM86 °FScattered clouds.13 mph75%29.98 "HgN/A
9:00 AM84 °FPassing clouds.10 mph74%29.98 "HgN/A
8:00 AM86 °FScattered clouds.14 mph75%29.95 "HgN/A
7:00 AM84 °FScattered clouds.14 mph84%29.95 "HgN/A
6:00 AM82 °FScattered clouds.14 mph84%29.92 "HgN/A
5:00 AM82 °FPassing clouds.9 mph84%29.92 "HgN/A
4:00 AM82 °FPassing clouds.8 mph84%29.89 "HgN/A
3:00 AM84 °FPassing clouds.13 mph79%29.92 "HgN/A
2:00 AM84 °FPassing clouds.13 mph84%29.92 "HgN/A
1:00 AM84 °FPassing clouds.10 mph79%29.95 "HgN/A
12:00 AM84 °FPassing clouds.12 mph74%29.95 "HgN/A
11:00 PM
Fri, Jul 3
84 °FPassing clouds.10 mph79%29.98 "HgN/A
10:00 PM84 °FPassing clouds.12 mph79%29.98 "HgN/A
9:00 PM84 °FPassing clouds.9 mph79%29.98 "HgN/A
7:00 PM86 °FPassing clouds.12 mph75%29.95 "HgN/A
6:00 PM86 °FScattered clouds.12 mph75%29.92 "HgN/A
5:00 PM88 °FScattered clouds.12 mph70%29.89 "HgN/A
4:00 PM88 °FScattered clouds.12 mph75%29.89 "HgN/A
3:00 PM90 °FScattered clouds.12 mph67%29.89 "HgN/A
Weather by CustomWeather, © 2015

See weather overviewHow to use our weather pages